Location: Killam
(52.7910°N, 111.8608°W)
Time: 05:52:16
(UTC+00:00)

A-11 Canister half - Pass Details

Date: 25 February 2026
Orbit: 1524 x 1683 km, 47.3° (Epoch: 13 March)

Event Time Altitude Azimuth Distance (km) Brightness Sun altitude
Rises 00:49:56 0° 261° (W) 4,722 14.5 0.2°
Reaches altitude 10° 00:53:03 10° 258° (WSW) 3,723 13.4 -0.2°
Maximum altitude 01:02:14 64° 180° (S) 1,670 9.4 -1.6°
Drops below altitude 10° 01:11:21 10° 102° (ESE) 3,695 10.4 -2.9°
Enters shadow 01:14:10 - 100° (E) 4,607 10.9 -3.3°
Sets 01:14:25 0° 100° (E) 4,684 - -3.4°
